User: anonymous   Login
Location: Hurecourt
(47.9030°N, 6.0653°E)
Time: 16:37:37
(UTC+00:00)
Language:

Cosmos 2082 Rocket - Orbit

View from above orbital plane
View from above orbital plane
View from above satellite
View from above satellite

Ground track
Ground track

The orbit data is extracted from the following two-line orbital elements,

1 20625U 90046B   20270.83219276 -.00000278 +00000-0 -11984-3 0  9998
2 20625 070.9993 155.4111 0011790 086.8386 273.4085 14.14659624566951
Epoch (UTC): 26 September 2020 19:58:21
Eccentricity: 0.0011790
inclination: 70.9993°
perigee height: 835 km
apogee height: 852 km
right ascension of ascending node: 155.4111°
argument of perigee: 86.8386°
revolutions per day: 14.14659624
mean anomaly at epoch: 273.4085°
orbit number at epoch: 56695

The dashed part of the orbit path shows where the satellite is in the earth's shadow,  

DLR